Weather in Nunligran

Russia / Chukotka Autonomous Okrug     64°47′40″N   175°23′03″W
temp.,
°C
wind,
m/s
gust,
m/s
humid.,
%
clouds,
%
prec.,
mm/h
press.,
hPa
HPBL,
m
17 august, wed
wed1700:00+5nne68725 0.0 1017566
03:00+4nne78765 0.0 1016451
06:00+4ne787311 0.0 1016672
09:00+6ne67638 0.0 1015935
12:00+8ne56565 0.0 10141184
15:00+9ne55575 0.0 10131160
18:00+8nne66595 0.0 1012847
21:00+6nne77645 0.0 1013697
18 august, thu
thu1800:00+5nne67677 0.0 1012771
03:00+5n57705 0.0 1011635
06:00+5nne567754 0.0 1011686
09:00+5n677187 0.0 1011948
12:00+7nne776354 0.0 10101157
15:00+7nne775819 0.0 10101208
18:00+6nne886132 0.0 10111130
21:00+5nne786424 0.0 10121030
19 august, fri
fri1900:00+5nne687111 0.0 1012690
03:00+5nne687476 0.0 1012807
06:00+5nne687869 0.0 1012682
09:00+5nne71085100 0.0 1013591
12:00+5ne588498 0.0 1013550
15:00+6ne558696 0.0 1014584
18:00+5nne5595100 0.1 1013416
21:00+5ne3394100 0.1 1014373
20 august, sat
sat2000:00+5ne3395100 0.2 1014299
03:00+5ne339293 0.0 1014291
06:00+6nne448764 0.0 1014255
09:00+7ene347623 0.0 1015516
12:00+9ese2368100 0.0 1015290
15:00+8wnw5474100 0.0 1015384
18:00+10nnw3470100 0.0 101594
21:00+9n6874100 0.0 1016136
21 august, sun
sun2100:00+9nne687691 0.0 1016158
03:00+8nne688022 0.0 1016220
06:00+7nne67769 0.0 1017211
09:00+9nne56745 0.0 1017288
12:00+10n33702 0.0 101795
15:00+10nne45640 0.0 1017117
18:00+9nne67724 0.0 1017213
21:00+8nne66785 0.0 1018323